Darstellungsparameter: Aktuell verwendete Einstellungen:
Skalierung der Graphiken ... ?
xyx+y,   Skalierungsfaktor:      Skalierung: Modus: x, Faktor: 1
Darstellungszeitraum ... ?
Vom - - bis: - -   Zeitraum: 04.05.2010 - 10.05.2010
Min/Max/Avg-Anzeige ... ?
Zeige MMA aktuell
Zeige MMA Monat
Zeige MMA alles
Zeige --A aktuell
Zeige --A Monat
Zeige --A alles
Keine MMA-Anzeige
MMA:
Average (ber die Originaldaten)
MMA-Basis: 04.05.2010 - 10.05.2010
Quicknavigation für Darstellung... ?
Tage:      1T, 2T, 3T, 5T -1T -2T -3T -5T +1T +2T +3T +5T
Wochen: 1W, 2W, 3W -1W -2W -3W +1W +2W +3W
Monate: 1M, 3M, 6M -1M -3M -6M +1M +3M +6M
Jahre:    1J, 3J, 5J, 10J -1J -3J -5J -10J +1J +3J +5J +10J
Nutze für die Darstellung ... ?
Originaldaten oder Mittelwerte auf ...
Stundenbasis Tagesbasis Wochenbasis
Monatsbasis Jahresbasis      Datenbasis: Original-Daten
Darstellen als:
Statistik (Auto) Statistik J:M      Darstellung:
Zur Graphik,    zurück zur Übersicht aller Sensoren.
 
Tabellarische Datenbersicht: ?
 
Sensor: Nr:Datum:Temp:Abs-Feuchte:Windchill:Wind:
Aussen-T/F 1 04-05-2010 00:08:05 8 C 6.37 g/m*3 8 C 0 km/h
2 04-05-2010 00:20:05 7.5 C 6.24 g/m*3 7.5 C 0 km/h
3 04-05-2010 00:32:05 7.2 C 6.28 g/m*3 7.2 C 0 km/h
4 04-05-2010 00:44:05 7.4 C 6.44 g/m*3 7.4 C 0 km/h
5 04-05-2010 00:56:05 7.8 C 6.69 g/m*3 7.8 C 0 km/h
6 04-05-2010 01:08:05 8 C 6.53 g/m*3 8 C 0 km/h
7 04-05-2010 01:20:06 8.1 C 6.49 g/m*3 8.1 C 0 km/h
8 04-05-2010 01:32:06 8.2 C 6.45 g/m*3 8.2 C 0 km/h
9 04-05-2010 01:44:06 8.3 C 6.49 g/m*3 8.3 C 0 km/h
10 04-05-2010 01:56:06 8.4 C 6.53 g/m*3 8.4 C 0 km/h
11 04-05-2010 02:08:06 8.4 C 6.53 g/m*3 8.4 C 0 km/h
12 04-05-2010 02:20:06 8.4 C 6.53 g/m*3 8.4 C 0 km/h
13 04-05-2010 02:32:06 8.4 C 6.53 g/m*3 8.4 C 0 km/h
14 04-05-2010 02:44:06 8.3 C 6.49 g/m*3 8.3 C 0 km/h
15 04-05-2010 02:56:06 8.4 C 6.62 g/m*3 8.4 C 0 km/h
16 04-05-2010 03:08:06 8.4 C 6.62 g/m*3 8.4 C 0 km/h
17 04-05-2010 03:20:06 8.4 C 6.62 g/m*3 8.4 C 0 km/h
18 04-05-2010 03:32:06 8.3 C 6.57 g/m*3 8.3 C 0 km/h
19 04-05-2010 03:44:06 8.2 C 6.62 g/m*3 8.2 C 0 km/h
20 04-05-2010 03:56:06 8.1 C 6.66 g/m*3 8.1 C 0 km/h
21 04-05-2010 04:08:06 8 C 6.61 g/m*3 8 C 0 km/h
22 04-05-2010 04:20:06 7.9 C 6.74 g/m*3 7.9 C 0 km/h
23 04-05-2010 04:32:06 7.9 C 6.82 g/m*3 7.9 C 0 km/h
24 04-05-2010 04:44:06 7.9 C 6.82 g/m*3 7.9 C 0 km/h
25 04-05-2010 04:56:06 7.9 C 6.82 g/m*3 7.9 C 0 km/h
Sensor: Nr:Datum:Temp:Abs-Feuchte:Windchill:Wind:
Aussen-T/F 26 04-05-2010 05:08:06 8 C 6.78 g/m*3 8 C 0 km/h
27 04-05-2010 05:20:06 8.1 C 6.82 g/m*3 8.1 C 0 km/h
28 04-05-2010 05:32:07 8.2 C 6.87 g/m*3 8.2 C 0 km/h
29 04-05-2010 05:44:07 8.2 C 6.87 g/m*3 8.2 C 0 km/h
30 04-05-2010 05:56:07 8.2 C 6.87 g/m*3 8.2 C 0 km/h
31 04-05-2010 06:08:07 8.1 C 6.82 g/m*3 8.1 C 0 km/h
32 04-05-2010 06:20:07 8.2 C 6.87 g/m*3 8.2 C 0 km/h
33 04-05-2010 06:32:07 8.2 C 6.87 g/m*3 8.2 C 0 km/h
34 04-05-2010 06:44:07 8.3 C 6.91 g/m*3 8.3 C 0 km/h
35 04-05-2010 06:56:02 8.4 C 6.96 g/m*3 8.4 C 0 km/h
36 04-05-2010 07:08:01 8.5 C 7 g/m*3 8.5 C 0 km/h
37 04-05-2010 07:20:02 8.6 C 6.96 g/m*3 8.6 C 0 km/h
38 04-05-2010 07:32:01 8.7 C 7.01 g/m*3 8.7 C 0 km/h
39 04-05-2010 07:44:01 8.7 C 6.92 g/m*3 8.7 C 0 km/h
40 04-05-2010 07:56:02 8.8 C 6.79 g/m*3 8.8 C 0 km/h
41 04-05-2010 08:08:01 9.2 C 6.61 g/m*3 9.2 C 0 km/h
42 04-05-2010 08:20:01 9 C 6.44 g/m*3 9 C 0 km/h
43 04-05-2010 08:32:02 9.1 C 6.48 g/m*3 9.1 C 0 km/h
44 04-05-2010 08:44:03 8.9 C 6.31 g/m*3 8.9 C 0 km/h
45 04-05-2010 08:56:02 8.9 C 6.31 g/m*3 8.9 C 0 km/h
46 04-05-2010 09:08:02 9.2 C 6.34 g/m*3 9.2 C 0 km/h
47 04-05-2010 09:20:01 9.1 C 6.21 g/m*3 9.1 C 0 km/h
48 04-05-2010 09:32:02 9.3 C 6.29 g/m*3 9.3 C 0 km/h
49 04-05-2010 09:44:02 9.3 C 6.2 g/m*3 9.3 C 0 km/h
50 04-05-2010 09:56:02 9.5 C 6.19 g/m*3 9.5 C 0 km/h
Sensor: Nr:Datum:Temp:Abs-Feuchte:Windchill:Wind:
Aussen-T/F 51 04-05-2010 10:08:02 9.6 C 6.14 g/m*3 9.6 C 0 km/h
52 04-05-2010 10:20:01 9.8 C 5.85 g/m*3 9.8 C 0 km/h
53 04-05-2010 10:32:02 9.8 C 5.85 g/m*3 9.8 C 0 km/h
54 04-05-2010 10:44:02 9.9 C 5.7 g/m*3 9.9 C 0 km/h
55 04-05-2010 10:56:01 10 C 5.54 g/m*3 10 C 0 km/h
56 04-05-2010 11:08:02 10.2 C 5.52 g/m*3 10.2 C 0 km/h
57 04-05-2010 11:20:02 10.5 C 5.24 g/m*3 10.5 C 0 km/h
58 04-05-2010 11:32:02 10.7 C 5.21 g/m*3 10.7 C 0 km/h
59 04-05-2010 11:44:02 11.1 C 5.04 g/m*3 11.1 C 0 km/h
60 04-05-2010 11:56:02 11.3 C 5 g/m*3 11.3 C 0 km/h
61 04-05-2010 12:08:02 10.8 C 4.94 g/m*3 10.8 C 0 km/h
62 04-05-2010 12:20:02 10.5 C 4.85 g/m*3 10.5 C 0 km/h
63 04-05-2010 12:32:01 10.6 C 4.78 g/m*3 10.6 C 0 km/h
64 04-05-2010 12:44:01 11.6 C 4.89 g/m*3 11.6 C 0 km/h
65 04-05-2010 12:56:02 12 C 4.69 g/m*3 12 C 0 km/h
66 04-05-2010 13:08:01 12.2 C 4.64 g/m*3 12.2 C 0 km/h
67 04-05-2010 13:20:02 11.7 C 4.71 g/m*3 11.7 C 0 km/h
68 04-05-2010 13:32:01 11.8 C 4.53 g/m*3 11.8 C 0 km/h
69 04-05-2010 13:44:01 12 C 4.48 g/m*3 12 C 0 km/h
70 04-05-2010 13:56:02 12.2 C 4.53 g/m*3 12.2 C 0 km/h
71 04-05-2010 14:08:02 12.1 C 4.5 g/m*3 12.1 C 0 km/h
72 04-05-2010 14:20:02 12.5 C 4.84 g/m*3 12.5 C 0 km/h
73 04-05-2010 14:32:02 13.1 C 4.56 g/m*3 13.1 C 0 km/h
74 04-05-2010 14:44:02 13.4 C 4.65 g/m*3 13.4 C 0 km/h
75 04-05-2010 14:56:02 13.5 C 4.44 g/m*3 13.5 C 0 km/h
Sensor: Nr:Datum:Temp:Abs-Feuchte:Windchill:Wind:
Aussen-T/F 76 04-05-2010 15:08:02 13.5 C 4.56 g/m*3 13.5 C 0 km/h
77 04-05-2010 15:20:02 13.8 C 4.41 g/m*3 13.8 C 0 km/h
78 04-05-2010 15:32:02 13.5 C 4.44 g/m*3 13.5 C 0 km/h
79 04-05-2010 15:44:02 13.5 C 4.56 g/m*3 13.5 C 0 km/h
80 04-05-2010 15:56:02 12.9 C 4.51 g/m*3 12.9 C 0 km/h
81 04-05-2010 16:08:02 12.5 C 4.51 g/m*3 12.5 C 0 km/h
82 04-05-2010 16:20:02 12.8 C 4.59 g/m*3 12.8 C 0 km/h
83 04-05-2010 16:32:02 12.5 C 4.4 g/m*3 12.5 C 0 km/h
84 04-05-2010 16:44:02 12.5 C 4.4 g/m*3 12.5 C 0 km/h
85 04-05-2010 16:56:01 12 C 4.26 g/m*3 12 C 0 km/h
86 04-05-2010 17:08:02 12 C 4.26 g/m*3 12 C 0 km/h
87 04-05-2010 17:20:01 11.4 C 4.31 g/m*3 11.4 C 0 km/h
88 04-05-2010 17:32:02 11.4 C 4.41 g/m*3 11.4 C 0 km/h
89 04-05-2010 17:44:02 11.5 C 4.34 g/m*3 11.5 C 0 km/h
90 04-05-2010 17:56:02 11.4 C 4.31 g/m*3 11.4 C 0 km/h
91 04-05-2010 18:08:02 11.5 C 4.23 g/m*3 11.5 C 0 km/h
92 04-05-2010 18:20:02 11.4 C 4.21 g/m*3 11.4 C 0 km/h
93 04-05-2010 18:32:02 11.2 C 4.16 g/m*3 11.2 C 0 km/h
94 04-05-2010 18:44:02 11.1 C 4.13 g/m*3 11.1 C 0 km/h
95 04-05-2010 18:56:02 11 C 4.3 g/m*3 11 C 0 km/h
96 04-05-2010 19:08:02 11 C 4.3 g/m*3 11 C 0 km/h
97 04-05-2010 19:20:02 12 C 4.16 g/m*3 12 C 0 km/h
98 04-05-2010 19:32:02 11.4 C 4 g/m*3 11.4 C 0 km/h
99 04-05-2010 19:44:02 11 C 4 g/m*3 11 C 0 km/h
100 04-05-2010 19:56:01 11 C 4.2 g/m*3 11 C 0 km/h
Sensor: Nr:Datum:Temp:Abs-Feuchte:Windchill:Wind:
Aussen-T/F 101 04-05-2010 20:08:02 10.7 C 4.22 g/m*3 10.7 C 0 km/h
102 04-05-2010 20:20:01 10.6 C 4.49 g/m*3 10.6 C 0 km/h
103 04-05-2010 20:32:01 10.1 C 4.35 g/m*3 10.1 C 0 km/h
104 04-05-2010 20:44:01 9.8 C 4.36 g/m*3 9.8 C 0 km/h
105 04-05-2010 20:56:01 9.4 C 4.34 g/m*3 9.4 C 0 km/h
106 04-05-2010 21:08:02 9.5 C 4.28 g/m*3 9.5 C 0 km/h
107 04-05-2010 21:20:01 9.6 C 4.31 g/m*3 9.6 C 0 km/h
108 04-05-2010 21:32:01 9.7 C 4.61 g/m*3 9.7 C 0 km/h
109 04-05-2010 21:44:01 9.5 C 4.64 g/m*3 9.5 C 0 km/h
110 04-05-2010 21:56:01 8.8 C 4.61 g/m*3 8.8 C 0 km/h
111 04-05-2010 22:09:04 8.2 C 4.35 g/m*3 8.2 C 0 km/h
112 04-05-2010 22:21:04 8.1 C 4.33 g/m*3 8.1 C 0 km/h
113 04-05-2010 22:33:05 7.8 C 4.24 g/m*3 7.8 C 0 km/h
114 04-05-2010 22:45:05 7.7 C 4.14 g/m*3 7.7 C 0 km/h
115 04-05-2010 22:57:05 7.5 C 4.16 g/m*3 7.5 C 0 km/h
116 04-05-2010 23:09:05 7.4 C 4.14 g/m*3 7.4 C 0 km/h
117 04-05-2010 23:21:05 7.4 C 4.14 g/m*3 7.4 C 0 km/h
118 04-05-2010 23:33:05 7.3 C 4.03 g/m*3 7.3 C 0 km/h
119 04-05-2010 23:45:05 7.3 C 4.03 g/m*3 7.3 C 0 km/h
120 04-05-2010 23:57:05 7 C 3.95 g/m*3 7 C 0 km/h
121 05-05-2010 00:09:05 6.8 C 4.05 g/m*3 6.8 C 0 km/h
122 05-05-2010 00:21:05 6.7 C 4.18 g/m*3 6.7 C 0 km/h
123 05-05-2010 00:33:05 6.3 C 4.22 g/m*3 6.3 C 0 km/h
124 05-05-2010 00:45:05 6 C 4.21 g/m*3 6 C 0 km/h
125 05-05-2010 00:57:05 5.8 C 4.37 g/m*3 5.8 C 0 km/h
Sensor: Nr:Datum:Temp:Abs-Feuchte:Windchill:Wind:
Aussen-T/F 126 05-05-2010 01:09:05 5.5 C 4.35 g/m*3 5.5 C 0 km/h
127 05-05-2010 01:21:05 5.3 C 4.44 g/m*3 5.3 C 0 km/h
128 05-05-2010 01:33:05 5.4 C 4.4 g/m*3 5.4 C 0 km/h
129 05-05-2010 01:45:05 5.6 C 4.31 g/m*3 5.6 C 0 km/h
130 05-05-2010 01:57:05 5.6 C 4.24 g/m*3 5.6 C 0 km/h
131 05-05-2010 02:09:05 5.7 C 4.13 g/m*3 5.7 C 0 km/h
132 05-05-2010 02:21:05 5.7 C 4.13 g/m*3 5.7 C 0 km/h
133 05-05-2010 02:33:05 5.6 C 4.17 g/m*3 5.6 C 0 km/h
134 05-05-2010 02:45:06 5.5 C 4.21 g/m*3 5.5 C 0 km/h
135 05-05-2010 02:57:06 5.2 C 4.2 g/m*3 5.2 C 0 km/h
136 05-05-2010 03:09:06 5.1 C 4.24 g/m*3 5.1 C 0 km/h
137 05-05-2010 03:21:06 4.8 C 4.22 g/m*3 4.8 C 0 km/h
138 05-05-2010 03:33:06 4.7 C 4.13 g/m*3 4.7 C 0 km/h
139 05-05-2010 03:45:06 4.6 C 4.1 g/m*3 4.6 C 0 km/h
140 05-05-2010 03:57:06 4.5 C 4.01 g/m*3 4.5 C 0 km/h
141 05-05-2010 04:09:06 4.3 C 3.96 g/m*3 4.3 C 0 km/h
142 05-05-2010 04:21:06 4 C 4.01 g/m*3 4 C 0 km/h
143 05-05-2010 04:33:06 3.8 C 4.08 g/m*3 3.8 C 0 km/h
144 05-05-2010 04:45:06 3.7 C 4.11 g/m*3 3.7 C 0 km/h
145 05-05-2010 04:57:06 3.7 C 4.05 g/m*3 3.7 C 0 km/h
146 05-05-2010 05:09:06 3.6 C 4.02 g/m*3 3.6 C 0 km/h
147 05-05-2010 05:21:06 3.6 C 3.96 g/m*3 3.6 C 0 km/h
148 05-05-2010 05:33:06 3.6 C 3.9 g/m*3 3.6 C 0 km/h
149 05-05-2010 05:45:06 3.4 C 3.79 g/m*3 3.4 C 0 km/h
150 05-05-2010 05:57:06 3.2 C 3.86 g/m*3 3.2 C 0 km/h
Sensor: Nr:Datum:Temp:Abs-Feuchte:Windchill:Wind:
Aussen-T/F 151 05-05-2010 06:09:06 3 C 3.86 g/m*3 3 C 0 km/h
152 05-05-2010 06:21:06 2.8 C 3.99 g/m*3 2.8 C 0 km/h
153 05-05-2010 06:33:03 2.6 C 3.99 g/m*3 2.6 C 0 km/h
154 05-05-2010 06:45:03 2.5 C 4.02 g/m*3 2.5 C 0 km/h
155 05-05-2010 06:57:03 2.5 C 4.08 g/m*3 2.5 C 0 km/h
156 05-05-2010 07:09:02 2.5 C 4.14 g/m*3 2.5 C 0 km/h
157 05-05-2010 07:21:03 2.7 C 4.25 g/m*3 2.7 C 0 km/h
158 05-05-2010 07:33:02 2.8 C 4.28 g/m*3 2.8 C 0 km/h
159 05-05-2010 07:45:02 3 C 4.28 g/m*3 3 C 0 km/h
160 05-05-2010 07:57:02 3.4 C 4.4 g/m*3 3.4 C 0 km/h
161 05-05-2010 08:09:02 3.8 C 4.45 g/m*3 3.8 C 0 km/h
162 05-05-2010 08:21:02 4.4 C 4.31 g/m*3 4.4 C 0 km/h
163 05-05-2010 08:33:02 4.6 C 4.17 g/m*3 4.6 C 0 km/h
164 05-05-2010 08:45:02 4.9 C 4.12 g/m*3 4.9 C 0 km/h
165 05-05-2010 08:57:02 5.3 C 4.02 g/m*3 5.3 C 0 km/h
166 05-05-2010 09:09:01 6 C 3.99 g/m*3 6 C 0 km/h
167 05-05-2010 09:21:02 6.6 C 3.85 g/m*3 6.6 C 0 km/h
168 05-05-2010 09:33:02 7.2 C 3.92 g/m*3 7.2 C 0 km/h
169 05-05-2010 09:45:02 7.5 C 3.76 g/m*3 7.5 C 0 km/h
170 05-05-2010 09:57:02 7.9 C 3.7 g/m*3 7.9 C 0 km/h
171 05-05-2010 10:09:02 8.1 C 3.58 g/m*3 8.1 C 0 km/h
172 05-05-2010 10:21:02 8.6 C 3.52 g/m*3 8.6 C 0 km/h
173 05-05-2010 10:33:02 9.5 C 3.37 g/m*3 9.5 C 0 km/h
174 05-05-2010 10:45:01 9.6 C 3.11 g/m*3 9.6 C 0 km/h
175 05-05-2010 10:57:01 10 C 2.91 g/m*3 10 C 0 km/h
Sensor: Nr:Datum:Temp:Abs-Feuchte:Windchill:Wind:
Aussen-T/F 176 05-05-2010 11:09:02 10.4 C 2.89 g/m*3 10.4 C 0 km/h
177 05-05-2010 11:21:01 10.7 C 2.75 g/m*3 10.7 C 0 km/h
178 05-05-2010 11:33:02 11.2 C 3.04 g/m*3 11.2 C 0 km/h
179 05-05-2010 11:45:02 11.9 C 2.65 g/m*3 11.9 C 0 km/h
180 05-05-2010 11:57:02 12.5 C 2.42 g/m*3 12.5 C 0 km/h
181 05-05-2010 12:09:02 12.7 C 2.23 g/m*3 12.7 C 0 km/h
182 05-05-2010 12:21:01 12.7 C 2.23 g/m*3 12.7 C 0 km/h
183 05-05-2010 12:33:02 13.4 C 2.32 g/m*3 13.4 C 0 km/h
184 05-05-2010 12:45:02 14.6 C 2.5 g/m*3 14.6 C 0 km/h
185 05-05-2010 12:57:02 15.2 C 2.6 g/m*3 15.2 C 0 km/h
186 05-05-2010 13:09:02 15.9 C 2.71 g/m*3 15.9 C 0 km/h
187 05-05-2010 13:21:01 16.6 C 2.83 g/m*3 16.6 C 0 km/h
188 05-05-2010 13:33:02 17.2 C 2.93 g/m*3 17.2 C 0 km/h
189 05-05-2010 13:45:01 16.6 C 2.83 g/m*3 16.6 C 0 km/h
190 05-05-2010 13:57:01 16.4 C 2.79 g/m*3 16.4 C 0 km/h
191 05-05-2010 14:09:02 16.7 C 2.84 g/m*3 16.7 C 0 km/h
192 05-05-2010 14:21:02 16.7 C 2.84 g/m*3 16.7 C 0 km/h
193 05-05-2010 14:33:01 17 C 2.89 g/m*3 17 C 0 km/h
194 05-05-2010 14:45:01 17.4 C 2.96 g/m*3 17.4 C 0 km/h
195 05-05-2010 14:57:01 17.5 C 2.98 g/m*3 17.5 C 0 km/h
196 05-05-2010 15:09:02 18.3 C 3.13 g/m*3 18.3 C 0 km/h
197 05-05-2010 15:21:02 18.2 C 3.11 g/m*3 18.2 C 0 km/h
198 05-05-2010 15:33:01 17.8 C 3.04 g/m*3 17.8 C 0 km/h
199 05-05-2010 15:45:02 18 C 3.07 g/m*3 18 C 0 km/h
200 05-05-2010 15:57:02 18.2 C 3.11 g/m*3 18.2 C 0 km/h
Sensor: Nr:Datum:Temp:Abs-Feuchte:Windchill:Wind:
Aussen-T/F 201 05-05-2010 16:09:01 18.3 C 3.13 g/m*3 18.3 C 0 km/h
202 05-05-2010 16:21:01 18.1 C 3.09 g/m*3 18.1 C 0 km/h
203 05-05-2010 16:33:01 17.7 C 3.02 g/m*3 17.7 C 0 km/h
204 05-05-2010 16:45:02 17.5 C 2.98 g/m*3 17.5 C 0 km/h
205 05-05-2010 16:57:02 17.2 C 2.93 g/m*3 17.2 C 0 km/h
206 05-05-2010 17:09:02 16.7 C 2.84 g/m*3 16.7 C 0 km/h
207 05-05-2010 17:21:02 16.2 C 2.76 g/m*3 16.2 C 0 km/h
208 05-05-2010 17:33:02 15.6 C 2.66 g/m*3 15.6 C 0 km/h
209 05-05-2010 17:45:02 15.1 C 2.58 g/m*3 15.1 C 0 km/h
210 05-05-2010 17:57:02 14.8 C 2.53 g/m*3 14.8 C 0 km/h
211 05-05-2010 18:09:01 14.5 C 2.49 g/m*3 14.5 C 0 km/h
212 05-05-2010 18:21:01 14.4 C 2.47 g/m*3 14.4 C 0 km/h
213 05-05-2010 18:33:02 14.2 C 2.44 g/m*3 14.2 C 0 km/h
214 05-05-2010 18:45:02 14.1 C 2.43 g/m*3 14.1 C 0 km/h
215 05-05-2010 18:57:02 13.8 C 2.38 g/m*3 13.8 C 0 km/h
216 05-05-2010 19:09:02 13.7 C 2.37 g/m*3 13.7 C 0 km/h
217 05-05-2010 19:21:01 13.6 C 2.35 g/m*3 13.6 C 0 km/h
218 05-05-2010 19:33:02 13.5 C 2.34 g/m*3 13.5 C 0 km/h
219 05-05-2010 19:45:02 13.3 C 2.43 g/m*3 13.3 C 0 km/h
220 05-05-2010 19:57:02 13.1 C 2.28 g/m*3 13.1 C 0 km/h
221 05-05-2010 20:09:02 13 C 2.49 g/m*3 13 C 0 km/h
222 05-05-2010 20:21:02 12.9 C 2.82 g/m*3 12.9 C 0 km/h
223 05-05-2010 20:33:02 12.8 C 2.91 g/m*3 12.8 C 0 km/h
224 05-05-2010 20:45:02 12.7 C 2.89 g/m*3 12.7 C 0 km/h
225 05-05-2010 20:57:02 12.6 C 2.88 g/m*3 12.6 C 0 km/h
Sensor: Nr:Datum:Temp:Abs-Feuchte:Windchill:Wind:
Aussen-T/F 226 05-05-2010 21:09:02 12.5 C 2.86 g/m*3 12.5 C 0 km/h
227 05-05-2010 21:21:02 12.4 C 2.84 g/m*3 12.4 C 0 km/h
228 05-05-2010 21:33:02 12.3 C 2.82 g/m*3 12.3 C 0 km/h
229 05-05-2010 21:45:02 12.3 C 2.93 g/m*3 12.3 C 0 km/h
230 05-05-2010 21:57:02 12.2 C 2.91 g/m*3 12.2 C 0 km/h
231 05-05-2010 22:09:03 12.1 C 3 g/m*3 12.1 C 0 km/h
232 05-05-2010 22:21:02 12 C 3.09 g/m*3 12 C 0 km/h
233 05-05-2010 22:34:02 11.9 C 3.39 g/m*3 11.9 C 0 km/h
234 05-05-2010 22:46:02 11.7 C 3.35 g/m*3 11.7 C 0 km/h
235 05-05-2010 22:58:02 11.7 C 3.35 g/m*3 11.7 C 0 km/h
236 05-05-2010 23:10:02 11.6 C 3.22 g/m*3 11.6 C 0 km/h
237 05-05-2010 23:22:02 11.5 C 3.2 g/m*3 11.5 C 0 km/h
238 05-05-2010 23:34:02 11.6 C 3.33 g/m*3 11.6 C 0 km/h
239 05-05-2010 23:46:02 11.4 C 3.39 g/m*3 11.4 C 0 km/h
240 05-05-2010 23:58:02 11.4 C 3.39 g/m*3 11.4 C 0 km/h
241 06-05-2010 00:10:02 11.3 C 3.47 g/m*3 11.3 C 0 km/h
242 06-05-2010 00:22:02 11.2 C 3.55 g/m*3 11.2 C 0 km/h
243 06-05-2010 00:34:02 11.2 C 3.55 g/m*3 11.2 C 0 km/h
244 06-05-2010 00:46:02 10.7 C 4.03 g/m*3 10.7 C 0 km/h
245 06-05-2010 00:58:02 9.8 C 4.45 g/m*3 9.8 C 0 km/h
246 06-05-2010 01:10:02 8.7 C 5.1 g/m*3 8.7 C 0 km/h
247 06-05-2010 01:22:02 7.9 C 5.5 g/m*3 7.9 C 0 km/h
248 06-05-2010 01:34:02 7.3 C 5.93 g/m*3 7.3 C 0 km/h
249 06-05-2010 01:46:02 7.1 C 6.01 g/m*3 7.1 C 0 km/h
250 06-05-2010 01:58:03 7 C 6.04 g/m*3 7 C 0 km/h
Sensor: Nr:Datum:Temp:Abs-Feuchte:Windchill:Wind:
Aussen-T/F 251 06-05-2010 02:10:03 6.9 C 6.31 g/m*3 6.9 C 0 km/h
252 06-05-2010 02:22:03 6.8 C 6.42 g/m*3 6.8 C 0 km/h
253 06-05-2010 02:34:03 6.7 C 6.53 g/m*3 6.7 C 0 km/h
254 06-05-2010 02:46:03 6.5 C 6.52 g/m*3 6.5 C 0 km/h
255 06-05-2010 02:58:03 6.8 C 6.73 g/m*3 6.8 C 0 km/h
256 06-05-2010 03:10:03 6.8 C 6.81 g/m*3 6.8 C 0 km/h
257 06-05-2010 03:22:03 6.7 C 6.84 g/m*3 6.7 C 0 km/h
258 06-05-2010 03:34:03 6.5 C 6.82 g/m*3 6.5 C 0 km/h
259 06-05-2010 03:46:03 6.9 C 7.01 g/m*3 6.9 C 0 km/h
260 06-05-2010 03:58:03 6.8 C 7.04 g/m*3 6.8 C 0 km/h
261 06-05-2010 04:10:03 6.9 C 7.08 g/m*3 6.9 C 0 km/h
262 06-05-2010 04:22:03 6.9 C 7.08 g/m*3 6.9 C 0 km/h
263 06-05-2010 04:34:03 6.9 C 7.08 g/m*3 6.9 C 0 km/h
264 06-05-2010 04:46:03 6.9 C 7.08 g/m*3 6.9 C 0 km/h
265 06-05-2010 04:58:03 6.8 C 7.04 g/m*3 6.8 C 0 km/h
266 06-05-2010 05:10:03 6.6 C 7.02 g/m*3 6.6 C 0 km/h
267 06-05-2010 05:22:03 6.5 C 6.97 g/m*3 6.5 C 0 km/h
268 06-05-2010 05:34:03 6.6 C 7.02 g/m*3 6.6 C 0 km/h
269 06-05-2010 05:46:03 6.8 C 7.11 g/m*3 6.8 C 0 km/h
270 06-05-2010 05:58:04 6.8 C 7.11 g/m*3 6.8 C 0 km/h
271 06-05-2010 06:10:04 6.5 C 6.97 g/m*3 6.5 C 0 km/h
272 06-05-2010 06:22:04 6.5 C 6.97 g/m*3 6.5 C 0 km/h
273 06-05-2010 06:34:04 6.5 C 6.97 g/m*3 6.5 C 0 km/h
274 06-05-2010 06:46:04 6.6 C 7.02 g/m*3 6.6 C 0 km/h
275 06-05-2010 06:58:04 6.5 C 7.05 g/m*3 6.5 C 0 km/h
Sensor: Nr:Datum:Temp:Abs-Feuchte:Windchill:Wind:
Aussen-T/F 276 06-05-2010 07:10:01 6.4 C 7 g/m*3 6.4 C 0 km/h
277 06-05-2010 07:22:02 6.4 C 7 g/m*3 6.4 C 0 km/h
278 06-05-2010 07:34:01 6.3 C 6.96 g/m*3 6.3 C 0 km/h
279 06-05-2010 07:46:03 6.5 C 7.05 g/m*3 6.5 C 0 km/h
280 06-05-2010 07:58:03 6.3 C 6.96 g/m*3 6.3 C 0 km/h
281 06-05-2010 08:10:02 6.1 C 6.87 g/m*3 6.1 C 0 km/h
282 06-05-2010 08:22:02 6.2 C 6.91 g/m*3 6.2 C 0 km/h
283 06-05-2010 08:34:03 6.2 C 6.91 g/m*3 6.2 C 0 km/h
284 06-05-2010 08:46:02 6.4 C 7 g/m*3 6.4 C 0 km/h
285 06-05-2010 08:58:02 6.2 C 6.91 g/m*3 6.2 C 0 km/h
286 06-05-2010 09:10:02 6.2 C 6.84 g/m*3 6.2 C 0 km/h
287 06-05-2010 09:22:01 6.4 C 7 g/m*3 6.4 C 0 km/h
288 06-05-2010 09:34:02 6.6 C 7.1 g/m*3 6.6 C 0 km/h
289 06-05-2010 09:46:02 6.8 C 7.19 g/m*3 6.8 C 0 km/h
290 06-05-2010 09:58:02 6.8 C 7.19 g/m*3 6.8 C 0 km/h
291 06-05-2010 10:10:02 6.8 C 7.19 g/m*3 6.8 C 0 km/h
292 06-05-2010 10:22:02 6.9 C 7.24 g/m*3 6.9 C 0 km/h
293 06-05-2010 10:34:02 6.8 C 7.11 g/m*3 6.8 C 0 km/h
294 06-05-2010 10:46:02 6.8 C 7.11 g/m*3 6.8 C 0 km/h
295 06-05-2010 10:58:02 6.9 C 7.16 g/m*3 6.9 C 0 km/h
296 06-05-2010 11:10:02 7 C 7.21 g/m*3 7 C 0 km/h
297 06-05-2010 11:22:02 7 C 7.13 g/m*3 7 C 0 km/h
298 06-05-2010 11:34:02 7 C 7.13 g/m*3 7 C 0 km/h
299 06-05-2010 11:46:01 7.1 C 7.18 g/m*3 7.1 C 0 km/h
300 06-05-2010 11:58:01 7.1 C 7.18 g/m*3 7.1 C 0 km/h
Sensor: Nr:Datum:Temp:Abs-Feuchte:Windchill:Wind:
Aussen-T/F 301 06-05-2010 12:10:01 7.2 C 7.22 g/m*3 7.2 C 0 km/h
302 06-05-2010 12:22:02 6.9 C 7.08 g/m*3 6.9 C 0 km/h
303 06-05-2010 12:34:02 6.9 C 7.01 g/m*3 6.9 C 0 km/h
304 06-05-2010 12:46:01 7.1 C 7.1 g/m*3 7.1 C 0 km/h
305 06-05-2010 12:58:01 7.2 C 7.06 g/m*3 7.2 C 0 km/h
306 06-05-2010 13:10:02 7.5 C 7.2 g/m*3 7.5 C 0 km/h
307 06-05-2010 13:22:01 7.7 C 7.3 g/m*3 7.7 C 0 km/h
308 06-05-2010 13:34:02 7.4 C 7.16 g/m*3 7.4 C 0 km/h
309 06-05-2010 13:46:02 7.3 C 7.19 g/m*3 7.3 C 0 km/h
310 06-05-2010 13:58:02 7.2 C 7.14 g/m*3 7.2 C 0 km/h
311 06-05-2010 14:10:03 7.3 C 7.27 g/m*3 7.3 C 0 km/h
312 06-05-2010 14:22:02 7.4 C 7.32 g/m*3 7.4 C 0 km/h
313 06-05-2010 14:34:03 7.3 C 7.27 g/m*3 7.3 C 0 km/h
314 06-05-2010 14:46:02 7.4 C 7.32 g/m*3 7.4 C 0 km/h
315 06-05-2010 14:58:02 7.6 C 7.49 g/m*3 7.6 C 0 km/h
316 06-05-2010 15:10:02 7.5 C 7.44 g/m*3 7.5 C 0 km/h
317 06-05-2010 15:22:02 7.1 C 7.18 g/m*3 7.1 C 0 km/h
318 06-05-2010 15:34:03 7.1 C 7.25 g/m*3 7.1 C 0 km/h
319 06-05-2010 15:46:01 6.9 C 7.16 g/m*3 6.9 C 0 km/h
320 06-05-2010 15:58:01 6.9 C 7.24 g/m*3 6.9 C 0 km/h
321 06-05-2010 16:10:02 6.7 C 7.14 g/m*3 6.7 C 0 km/h
322 06-05-2010 16:22:02 6.5 C 6.97 g/m*3 6.5 C 0 km/h
323 06-05-2010 16:34:02 6.5 C 6.97 g/m*3 6.5 C 0 km/h
324 06-05-2010 16:46:03 6.5 C 6.97 g/m*3 6.5 C 0 km/h
325 06-05-2010 16:58:03 6.5 C 6.97 g/m*3 6.5 C 0 km/h
Sensor: Nr:Datum:Temp:Abs-Feuchte:Windchill:Wind:
Aussen-T/F 326 06-05-2010 17:10:02 6.5 C 6.9 g/m*3 6.5 C 0 km/h
327 06-05-2010 17:22:03 6.6 C 6.95 g/m*3 6.6 C 0 km/h
328 06-05-2010 17:34:02 6.4 C 6.85 g/m*3 6.4 C 0 km/h
329 06-05-2010 17:46:03 6.5 C 6.9 g/m*3 6.5 C 0 km/h
330 06-05-2010 17:58:03 6.3 C 6.81 g/m*3 6.3 C 0 km/h
331 06-05-2010 18:10:02 6 C 6.6 g/m*3 6 C 0 km/h
332 06-05-2010 18:22:02 5.9 C 6.56 g/m*3 5.9 C 0 km/h
333 06-05-2010 18:34:02 5.8 C 6.52 g/m*3 5.8 C 0 km/h
334 06-05-2010 18:46:02 5.9 C 6.63 g/m*3 5.9 C 0 km/h
335 06-05-2010 18:58:02 5.9 C 6.63 g/m*3 5.9 C 0 km/h
336 06-05-2010 19:10:02 6 C 6.6 g/m*3 6 C 0 km/h
337 06-05-2010 19:22:02 5.9 C 6.63 g/m*3 5.9 C 0 km/h
338 06-05-2010 19:34:02 5.9 C 6.63 g/m*3 5.9 C 0 km/h
339 06-05-2010 19:46:02 5.7 C 6.55 g/m*3 5.7 C 0 km/h
340 06-05-2010 19:58:02 5.6 C 6.57 g/m*3 5.6 C 0 km/h
341 06-05-2010 20:10:01 5.6 C 6.57 g/m*3 5.6 C 0 km/h
342 06-05-2010 20:22:02 5.5 C 6.53 g/m*3 5.5 C 0 km/h
343 06-05-2010 20:34:02 5.6 C 6.65 g/m*3 5.6 C 0 km/h
344 06-05-2010 20:46:02 5.4 C 6.56 g/m*3 5.4 C 0 km/h
345 06-05-2010 20:58:02 5.4 C 6.56 g/m*3 5.4 C 0 km/h
346 06-05-2010 21:10:01 5.4 C 6.56 g/m*3 5.4 C 0 km/h
347 06-05-2010 21:22:02 5.4 C 6.56 g/m*3 5.4 C 0 km/h
348 06-05-2010 21:34:01 5.3 C 6.52 g/m*3 5.3 C 0 km/h
349 06-05-2010 21:46:03 5.4 C 6.56 g/m*3 5.4 C 0 km/h
350 06-05-2010 21:58:03 5.4 C 6.56 g/m*3 5.4 C 0 km/h
Sensor: Nr:Datum:Temp:Abs-Feuchte:Windchill:Wind:
Aussen-T/F 351 06-05-2010 22:10:02 5.4 C 6.63 g/m*3 5.4 C 0 km/h
352 06-05-2010 22:22:02 5.4 C 6.63 g/m*3 5.4 C 0 km/h
353 06-05-2010 22:34:02 5.4 C 6.63 g/m*3 5.4 C 0 km/h
354 06-05-2010 22:47:02 5.4 C 6.63 g/m*3 5.4 C 0 km/h
355 06-05-2010 22:59:02 5.4 C 6.63 g/m*3 5.4 C 0 km/h
356 06-05-2010 23:11:02 5.4 C 6.63 g/m*3 5.4 C 0 km/h
357 06-05-2010 23:23:02 5.4 C 6.63 g/m*3 5.4 C 0 km/h
358 06-05-2010 23:35:02 5.4 C 6.63 g/m*3 5.4 C 0 km/h
359 06-05-2010 23:47:02 5.3 C 6.58 g/m*3 5.3 C 0 km/h
360 06-05-2010 23:59:02 5.3 C 6.58 g/m*3 5.3 C 0 km/h
361 07-05-2010 00:11:02 5.4 C 6.63 g/m*3 5.4 C 0 km/h
362 07-05-2010 00:23:02 5.4 C 6.63 g/m*3 5.4 C 0 km/h
363 07-05-2010 00:35:02 5.4 C 6.63 g/m*3 5.4 C 0 km/h
364 07-05-2010 00:47:02 5.4 C 6.63 g/m*3 5.4 C 0 km/h
365 07-05-2010 00:59:02 5.4 C 6.63 g/m*3 5.4 C 0 km/h
366 07-05-2010 01:11:03 5.4 C 6.63 g/m*3 5.4 C 0 km/h
367 07-05-2010 01:23:03 5.4 C 6.63 g/m*3 5.4 C 0 km/h
368 07-05-2010 01:35:03 5.4 C 6.63 g/m*3 5.4 C 0 km/h
369 07-05-2010 01:47:03 5.4 C 6.63 g/m*3 5.4 C 0 km/h
370 07-05-2010 01:59:03 5.4 C 6.63 g/m*3 5.4 C 0 km/h
371 07-05-2010 02:11:03 5.4 C 6.63 g/m*3 5.4 C 0 km/h
372 07-05-2010 02:23:03 5.4 C 6.63 g/m*3 5.4 C 0 km/h
373 07-05-2010 02:35:03 5.4 C 6.63 g/m*3 5.4 C 0 km/h
374 07-05-2010 02:47:03 5.4 C 6.63 g/m*3 5.4 C 0 km/h
375 07-05-2010 02:59:03 5.4 C 6.63 g/m*3 5.4 C 0 km/h
Sensor: Nr:Datum:Temp:Abs-Feuchte:Windchill:Wind:
Aussen-T/F 376 07-05-2010 03:11:03 5.4 C 6.63 g/m*3 5.4 C 0 km/h
377 07-05-2010 03:23:03 5.4 C 6.63 g/m*3 5.4 C 0 km/h
378 07-05-2010 03:35:03 5.3 C 6.58 g/m*3 5.3 C 0 km/h
379 07-05-2010 03:47:03 5.3 C 6.58 g/m*3 5.3 C 0 km/h
380 07-05-2010 03:59:03 5.2 C 6.54 g/m*3 5.2 C 0 km/h
381 07-05-2010 04:11:03 5.2 C 6.54 g/m*3 5.2 C 0 km/h
382 07-05-2010 04:23:03 5.2 C 6.54 g/m*3 5.2 C 0 km/h
383 07-05-2010 04:35:03 5.2 C 6.54 g/m*3 5.2 C 0 km/h
384 07-05-2010 04:47:03 5.2 C 6.54 g/m*3 5.2 C 0 km/h
385 07-05-2010 04:59:03 5.1 C 6.5 g/m*3 5.1 C 0 km/h
386 07-05-2010 05:11:04 5 C 6.46 g/m*3 5 C 0 km/h
387 07-05-2010 05:23:04 5 C 6.46 g/m*3 5 C 0 km/h
388 07-05-2010 05:35:04 4.9 C 6.41 g/m*3 4.9 C 0 km/h
389 07-05-2010 05:47:04 4.8 C 6.37 g/m*3 4.8 C 0 km/h
390 07-05-2010 05:59:04 4.7 C 6.33 g/m*3 4.7 C 0 km/h
391 07-05-2010 06:11:04 4.7 C 6.33 g/m*3 4.7 C 0 km/h
392 07-05-2010 06:23:04 4.6 C 6.29 g/m*3 4.6 C 0 km/h
393 07-05-2010 06:35:04 4.5 C 6.24 g/m*3 4.5 C 0 km/h
394 07-05-2010 06:47:04 4.6 C 6.29 g/m*3 4.6 C 0 km/h
395 07-05-2010 06:59:04 4.6 C 6.29 g/m*3 4.6 C 0 km/h
396 07-05-2010 07:11:04 4.6 C 6.29 g/m*3 4.6 C 0 km/h
397 07-05-2010 07:23:04 4.7 C 6.33 g/m*3 4.7 C 0 km/h
398 07-05-2010 07:35:04 4.6 C 6.29 g/m*3 4.6 C 0 km/h
399 07-05-2010 07:47:04 4.7 C 6.33 g/m*3 4.7 C 0 km/h
400 07-05-2010 07:59:04 4.8 C 6.37 g/m*3 4.8 C 0 km/h
Sensor: Nr:Datum:Temp:Abs-Feuchte:Windchill:Wind:
Aussen-T/F 401 07-05-2010 08:11:04 4.9 C 6.41 g/m*3 4.9 C 0 km/h
402 07-05-2010 08:23:04 4.8 C 6.37 g/m*3 4.8 C 0 km/h
403 07-05-2010 08:35:02 5 C 6.46 g/m*3 5 C 0 km/h
404 07-05-2010 08:47:02 4.8 C 6.3 g/m*3 4.8 C 0 km/h
405 07-05-2010 08:59:02 4.6 C 6.22 g/m*3 4.6 C 0 km/h
406 07-05-2010 09:11:02 4.9 C 6.28 g/m*3 4.9 C 0 km/h
407 07-05-2010 09:23:03 4.8 C 6.24 g/m*3 4.8 C 0 km/h
408 07-05-2010 09:35:02 4.7 C 6.13 g/m*3 4.7 C 0 km/h
409 07-05-2010 09:47:02 5 C 6.12 g/m*3 5 C 0 km/h
410 07-05-2010 09:59:02 4.9 C 6.08 g/m*3 4.9 C 0 km/h
411 07-05-2010 10:11:02 5 C 6.05 g/m*3 5 C 0 km/h
412 07-05-2010 10:23:02 5.3 C 6.17 g/m*3 5.3 C 0 km/h
413 07-05-2010 10:35:02 6 C 6.39 g/m*3 6 C 0 km/h
414 07-05-2010 10:47:02 5.6 C 6.15 g/m*3 5.6 C 0 km/h
415 07-05-2010 10:59:02 5.7 C 6.12 g/m*3 5.7 C 0 km/h
416 07-05-2010 11:11:01 6.8 C 6.58 g/m*3 6.8 C 0 km/h
417 07-05-2010 11:23:02 7 C 6.66 g/m*3 7 C 0 km/h
418 07-05-2010 11:35:02 7.1 C 6.71 g/m*3 7.1 C 0 km/h
419 07-05-2010 11:47:02 7.1 C 6.71 g/m*3 7.1 C 0 km/h
420 07-05-2010 11:59:02 7.1 C 6.63 g/m*3 7.1 C 0 km/h
421 07-05-2010 12:11:03 7.1 C 6.4 g/m*3 7.1 C 0 km/h
422 07-05-2010 12:23:02 7 C 6.28 g/m*3 7 C 0 km/h
423 07-05-2010 12:35:02 7.1 C 6.4 g/m*3 7.1 C 0 km/h
424 07-05-2010 12:47:01 7.3 C 6.48 g/m*3 7.3 C 0 km/h
425 07-05-2010 12:59:01 7.2 C 6.2 g/m*3 7.2 C 0 km/h
Sensor: Nr:Datum:Temp:Abs-Feuchte:Windchill:Wind:
Aussen-T/F 426 07-05-2010 13:11:02 7.3 C 6.4 g/m*3 7.3 C 0 km/h
427 07-05-2010 13:23:01 7.8 C 6.61 g/m*3 7.8 C 0 km/h
428 07-05-2010 13:35:02 8.3 C 6.66 g/m*3 8.3 C 0 km/h
429 07-05-2010 13:47:01 7.9 C 6.49 g/m*3 7.9 C 0 km/h
430 07-05-2010 13:59:01 7.7 C 6.41 g/m*3 7.7 C 0 km/h
431 07-05-2010 14:11:02 8.6 C 6.87 g/m*3 8.6 C 0 km/h
432 07-05-2010 14:23:01 8.4 C 6.79 g/m*3 8.4 C 0 km/h
433 07-05-2010 14:35:02 8.5 C 6.92 g/m*3 8.5 C 0 km/h
434 07-05-2010 14:47:01 8.3 C 6.83 g/m*3 8.3 C 0 km/h
435 07-05-2010 14:59:01 8.3 C 6.66 g/m*3 8.3 C 0 km/h
436 07-05-2010 15:11:02 8.4 C 6.87 g/m*3 8.4 C 0 km/h
437 07-05-2010 15:23:02 7.8 C 6.61 g/m*3 7.8 C 0 km/h
438 07-05-2010 15:35:02 7.7 C 6.57 g/m*3 7.7 C 0 km/h
439 07-05-2010 15:47:02 8.5 C 7 g/m*3 8.5 C 0 km/h
440 07-05-2010 15:59:02 8.6 C 7.05 g/m*3 8.6 C 0 km/h
441 07-05-2010 16:11:01 9.3 C 7.19 g/m*3 9.3 C 0 km/h
442 07-05-2010 16:23:01 9.2 C 6.97 g/m*3 9.2 C 0 km/h
443 07-05-2010 16:35:01 9 C 6.61 g/m*3 9 C 0 km/h
444 07-05-2010 16:47:01 9.2 C 6.97 g/m*3 9.2 C 0 km/h
445 07-05-2010 16:59:01 9.1 C 6.92 g/m*3 9.1 C 0 km/h
446 07-05-2010 17:11:02 8.9 C 6.92 g/m*3 8.9 C 0 km/h
447 07-05-2010 17:23:01 9.2 C 6.97 g/m*3 9.2 C 0 km/h
448 07-05-2010 17:35:02 9.4 C 7.05 g/m*3 9.4 C 0 km/h
449 07-05-2010 17:47:01 9.8 C 7.24 g/m*3 9.8 C 0 km/h
450 07-05-2010 17:59:01 9.8 C 7.24 g/m*3 9.8 C 0 km/h
Sensor: Nr:Datum:Temp:Abs-Feuchte:Windchill:Wind:
Aussen-T/F 451 07-05-2010 18:11:02 9.8 C 7.24 g/m*3 9.8 C 0 km/h
452 07-05-2010 18:23:02 9.4 C 6.96 g/m*3 9.4 C 0 km/h
453 07-05-2010 18:35:02 9 C 6.88 g/m*3 9 C 0 km/h
454 07-05-2010 18:47:02 9 C 7.05 g/m*3 9 C 0 km/h
455 07-05-2010 18:59:02 8.5 C 7 g/m*3 8.5 C 0 km/h
456 07-05-2010 19:11:02 8.2 C 7.03 g/m*3 8.2 C 0 km/h
457 07-05-2010 19:23:02 8.1 C 6.99 g/m*3 8.1 C 0 km/h
458 07-05-2010 19:35:02 7.9 C 7.06 g/m*3 7.9 C 0 km/h
459 07-05-2010 19:47:02 7.6 C 7.09 g/m*3 7.6 C 0 km/h
460 07-05-2010 19:59:02 7.7 C 7.14 g/m*3 7.7 C 0 km/h
461 07-05-2010 20:11:02 7.3 C 7.03 g/m*3 7.3 C 0 km/h
462 07-05-2010 20:23:01 7.3 C 7.03 g/m*3 7.3 C 0 km/h
463 07-05-2010 20:35:02 7.2 C 7.06 g/m*3 7.2 C 0 km/h
464 07-05-2010 20:47:02 7.1 C 7.1 g/m*3 7.1 C 0 km/h
465 07-05-2010 20:59:02 6.9 C 7.08 g/m*3 6.9 C 0 km/h
466 07-05-2010 21:11:02 6.7 C 6.99 g/m*3 6.7 C 0 km/h
467 07-05-2010 21:23:02 6.8 C 7.04 g/m*3 6.8 C 0 km/h
468 07-05-2010 21:35:02 6.8 C 7.11 g/m*3 6.8 C 0 km/h
469 07-05-2010 21:47:02 6.7 C 7.07 g/m*3 6.7 C 0 km/h
470 07-05-2010 21:59:02 6.4 C 6.93 g/m*3 6.4 C 0 km/h
471 07-05-2010 22:11:02 6.1 C 6.79 g/m*3 6.1 C 0 km/h
472 07-05-2010 22:23:02 5.9 C 6.71 g/m*3 5.9 C 0 km/h
473 07-05-2010 22:35:02 5.7 C 6.62 g/m*3 5.7 C 0 km/h
474 07-05-2010 22:47:02 5.6 C 6.57 g/m*3 5.6 C 0 km/h
475 07-05-2010 22:59:02 5.7 C 6.69 g/m*3 5.7 C 0 km/h
Sensor: Nr:Datum:Temp:Abs-Feuchte:Windchill:Wind:
Aussen-T/F 476 07-05-2010 23:11:01 5.9 C 6.78 g/m*3 5.9 C 0 km/h
477 07-05-2010 23:23:02 5.9 C 6.78 g/m*3 5.9 C 0 km/h
478 07-05-2010 23:35:02 5.9 C 6.85 g/m*3 5.9 C 0 km/h
479 07-05-2010 23:47:02 6 C 6.82 g/m*3 6 C 0 km/h
480 07-05-2010 23:59:03 6.1 C 6.87 g/m*3 6.1 C 0 km/h
481 08-05-2010 00:11:01 6.2 C 6.91 g/m*3 6.2 C 0 km/h
482 08-05-2010 00:23:02 6.2 C 6.91 g/m*3 6.2 C 0 km/h
483 08-05-2010 00:35:01 6 C 6.82 g/m*3 6 C 0 km/h
484 08-05-2010 00:47:02 5.6 C 6.65 g/m*3 5.6 C 0 km/h
485 08-05-2010 00:59:02 5.5 C 6.6 g/m*3 5.5 C 0 km/h
486 08-05-2010 01:11:02 5.4 C 6.56 g/m*3 5.4 C 0 km/h
487 08-05-2010 01:23:02 5.1 C 6.43 g/m*3 5.1 C 0 km/h
488 08-05-2010 01:35:02 4.9 C 6.35 g/m*3 4.9 C 0 km/h
489 08-05-2010 01:47:02 4.7 C 6.26 g/m*3 4.7 C 0 km/h
490 08-05-2010 01:59:02 4.7 C 6.33 g/m*3 4.7 C 0 km/h
491 08-05-2010 02:11:01 4.5 C 6.18 g/m*3 4.5 C 0 km/h
492 08-05-2010 02:23:02 4.5 C 6.24 g/m*3 4.5 C 0 km/h
493 08-05-2010 02:35:02 4.6 C 6.29 g/m*3 4.6 C 0 km/h
494 08-05-2010 02:48:03 4.4 C 6.2 g/m*3 4.4 C 0 km/h
495 08-05-2010 03:00:03 4.5 C 6.24 g/m*3 4.5 C 0 km/h
496 08-05-2010 03:12:03 4.6 C 6.29 g/m*3 4.6 C 0 km/h
497 08-05-2010 03:24:03 4.7 C 6.33 g/m*3 4.7 C 0 km/h
498 08-05-2010 03:36:02 4.6 C 6.29 g/m*3 4.6 C 0 km/h
499 08-05-2010 03:48:02 4.6 C 6.29 g/m*3 4.6 C 0 km/h
500 08-05-2010 04:00:02 4.7 C 6.33 g/m*3 4.7 C 0 km/h
Sensor: Nr:Datum:Temp:Abs-Feuchte:Windchill:Wind:
Aussen-T/F 501 08-05-2010 04:12:02 4.6 C 6.29 g/m*3 4.6 C 0 km/h
502 08-05-2010 04:24:02 4.4 C 6.2 g/m*3 4.4 C 0 km/h
503 08-05-2010 04:36:02 4 C 6.04 g/m*3 4 C 0 km/h
504 08-05-2010 04:48:02 4 C 6.04 g/m*3 4 C 0 km/h
505 08-05-2010 05:00:02 4.1 C 6.08 g/m*3 4.1 C 0 km/h
506 08-05-2010 05:12:01 4.2 C 6.12 g/m*3 4.2 C 0 km/h
507 08-05-2010 05:24:02 4.4 C 6.2 g/m*3 4.4 C 0 km/h
508 08-05-2010 05:36:02 4.5 C 6.24 g/m*3 4.5 C 0 km/h
509 08-05-2010 05:48:02 4.5 C 6.24 g/m*3 4.5 C 0 km/h
510 08-05-2010 06:00:02 4.5 C 6.24 g/m*3 4.5 C 0 km/h
511 08-05-2010 06:12:03 4.6 C 6.29 g/m*3 4.6 C 0 km/h
512 08-05-2010 06:24:02 4.6 C 6.29 g/m*3 4.6 C 0 km/h
513 08-05-2010 06:36:02 4.8 C 6.37 g/m*3 4.8 C 0 km/h
514 08-05-2010 06:48:01 4.8 C 6.37 g/m*3 4.8 C 0 km/h
515 08-05-2010 07:00:01 4.8 C 6.37 g/m*3 4.8 C 0 km/h
516 08-05-2010 07:12:02 5 C 6.46 g/m*3 5 C 0 km/h
517 08-05-2010 07:24:01 5.2 C 6.54 g/m*3 5.2 C 0 km/h
518 08-05-2010 07:36:01 5.5 C 6.67 g/m*3 5.5 C 0 km/h
519 08-05-2010 07:48:01 5.6 C 6.72 g/m*3 5.6 C 0 km/h
520 08-05-2010 08:00:01 5.9 C 6.78 g/m*3 5.9 C 0 km/h
521 08-05-2010 08:12:02 6 C 6.68 g/m*3 6 C 0 km/h
522 08-05-2010 08:24:01 5.8 C 6.52 g/m*3 5.8 C 0 km/h
523 08-05-2010 08:36:01 6.2 C 6.55 g/m*3 6.2 C 0 km/h
524 08-05-2010 08:48:01 6.5 C 6.6 g/m*3 6.5 C 0 km/h
525 08-05-2010 09:00:01 7.3 C 6.87 g/m*3 7.3 C 0 km/h
Sensor: Nr:Datum:Temp:Abs-Feuchte:Windchill:Wind:
Aussen-T/F 526 08-05-2010 09:12:02 8 C 7.03 g/m*3 8 C 0 km/h
527 08-05-2010 09:24:01 8.1 C 6.82 g/m*3 8.1 C 0 km/h
528 08-05-2010 09:36:01 8.7 C 7.01 g/m*3 8.7 C 0 km/h
529 08-05-2010 09:48:01 9.2 C 7.05 g/m*3 9.2 C 0 km/h
530 08-05-2010 10:00:01 9.1 C 6.74 g/m*3 9.1 C 0 km/h
531 08-05-2010 10:12:02 9.1 C 6.57 g/m*3 9.1 C 0 km/h
532 08-05-2010 10:24:01 9.6 C 6.87 g/m*3 9.6 C 0 km/h
533 08-05-2010 10:36:01 10.1 C 6.9 g/m*3 10.1 C 0 km/h
534 08-05-2010 10:48:01 10.4 C 7.04 g/m*3 10.4 C 0 km/h
535 08-05-2010 11:00:01 11.2 C 7.3 g/m*3 11.2 C 0 km/h
536 08-05-2010 11:12:02 12.1 C 7.18 g/m*3 12.1 C 0 km/h
537 08-05-2010 11:24:01 12.8 C 7.06 g/m*3 12.8 C 0 km/h
538 08-05-2010 11:36:01 14.1 C 6.31 g/m*3 14.1 C 0 km/h
539 08-05-2010 11:48:01 15.1 C 5.55 g/m*3 15.1 C 0 km/h
540 08-05-2010 12:00:01 14.8 C 5.32 g/m*3 14.8 C 0 km/h
541 08-05-2010 12:12:01 14.5 C 4.97 g/m*3 14.5 C 0 km/h
542 08-05-2010 12:24:02 15.6 C 5.19 g/m*3 15.6 C 0 km/h
543 08-05-2010 12:36:01 15 C 4.74 g/m*3 15 C 0 km/h
544 08-05-2010 12:48:03 16.3 C 5.13 g/m*3 16.3 C 0 km/h
545 08-05-2010 13:00:03 16.5 C 5.2 g/m*3 16.5 C 0 km/h
546 08-05-2010 13:12:02 16 C 5.31 g/m*3 16 C 0 km/h
547 08-05-2010 13:24:02 15.8 C 5.25 g/m*3 15.8 C 0 km/h
548 08-05-2010 13:36:02 17.5 C 5.37 g/m*3 17.5 C 0 km/h
549 08-05-2010 13:48:02 18.4 C 4.88 g/m*3 18.4 C 0 km/h
550 08-05-2010 14:00:02 16.4 C 4.19 g/m*3 16.4 C 0 km/h
Sensor: Nr:Datum:Temp:Abs-Feuchte:Windchill:Wind:
Aussen-T/F 551 08-05-2010 14:12:02 15.5 C 4.1 g/m*3 15.5 C 0 km/h
552 08-05-2010 14:24:02 15 C 4.36 g/m*3 15 C 0 km/h
553 08-05-2010 14:36:01 15.6 C 4.39 g/m*3 15.6 C 0 km/h
554 08-05-2010 14:48:02 15.6 C 4.12 g/m*3 15.6 C 0 km/h
555 08-05-2010 15:00:02 16 C 4.22 g/m*3 16 C 0 km/h
556 08-05-2010 15:12:01 16.1 C 4.25 g/m*3 16.1 C 0 km/h
557 08-05-2010 15:24:02 16 C 4.36 g/m*3 16 C 0 km/h
558 08-05-2010 15:36:02 16 C 4.36 g/m*3 16 C 0 km/h
559 08-05-2010 15:48:02 15.5 C 4.63 g/m*3 15.5 C 0 km/h
560 08-05-2010 16:00:02 16.4 C 4.61 g/m*3 16.4 C 0 km/h
561 08-05-2010 16:12:03 16.6 C 4.38 g/m*3 16.6 C 0 km/h
562 08-05-2010 16:24:02 16.4 C 4.47 g/m*3 16.4 C 0 km/h
563 08-05-2010 16:36:02 17.5 C 4.32 g/m*3 17.5 C 0 km/h
564 08-05-2010 16:48:01 17.6 C 4.2 g/m*3 17.6 C 0 km/h
565 08-05-2010 17:00:01 17.4 C 4.15 g/m*3 17.4 C 0 km/h
566 08-05-2010 17:12:02 17.5 C 4.17 g/m*3 17.5 C 0 km/h
567 08-05-2010 17:24:01 18.5 C 4.27 g/m*3 18.5 C 0 km/h
568 08-05-2010 17:36:02 17.9 C 4.12 g/m*3 17.9 C 0 km/h
569 08-05-2010 17:48:01 18.7 C 4.16 g/m*3 18.7 C 0 km/h
570 08-05-2010 18:00:01 19.2 C 4.12 g/m*3 19.2 C 0 km/h
571 08-05-2010 18:12:02 19.9 C 3.95 g/m*3 19.9 C 0 km/h
572 08-05-2010 18:24:01 19.4 C 4 g/m*3 19.4 C 0 km/h
573 08-05-2010 18:36:02 19.5 C 4.2 g/m*3 19.5 C 0 km/h
574 08-05-2010 18:48:01 19.8 C 4.27 g/m*3 19.8 C 0 km/h
575 08-05-2010 19:00:01 19.1 C 4.1 g/m*3 19.1 C 0 km/h
Sensor: Nr:Datum:Temp:Abs-Feuchte:Windchill:Wind:
Aussen-T/F 576 08-05-2010 19:12:02 18.8 C 4.03 g/m*3 18.8 C 0 km/h
577 08-05-2010 19:24:02 18.4 C 4.25 g/m*3 18.4 C 0 km/h
578 08-05-2010 19:36:02 17.5 C 4.47 g/m*3 17.5 C 0 km/h
579 08-05-2010 19:48:01 17.6 C 4.65 g/m*3 17.6 C 0 km/h
580 08-05-2010 20:00:01 17.3 C 5.16 g/m*3 17.3 C 0 km/h
581 08-05-2010 20:12:02 16.5 C 6.04 g/m*3 16.5 C 0 km/h
582 08-05-2010 20:24:02 15.7 C 6.42 g/m*3 15.7 C 0 km/h
583 08-05-2010 20:36:02 15.1 C 6.06 g/m*3 15.1 C 0 km/h
584 08-05-2010 20:48:01 14.3 C 6.02 g/m*3 14.3 C 0 km/h
585 08-05-2010 21:00:01 13.8 C 5.96 g/m*3 13.8 C 0 km/h
586 08-05-2010 21:12:02 13.5 C 6.08 g/m*3 13.5 C 0 km/h
587 08-05-2010 21:24:02 13.5 C 6.43 g/m*3 13.5 C 0 km/h
588 08-05-2010 21:36:02 13.5 C 6.08 g/m*3 13.5 C 0 km/h
589 08-05-2010 21:48:02 12.9 C 5.97 g/m*3 12.9 C 0 km/h
590 08-05-2010 22:00:02 12.4 C 5.9 g/m*3 12.4 C 0 km/h
591 08-05-2010 22:12:02 11.9 C 6.04 g/m*3 11.9 C 0 km/h
592 08-05-2010 22:24:02 11.7 C 5.86 g/m*3 11.7 C 0 km/h
593 08-05-2010 22:36:01 11.8 C 6.21 g/m*3 11.8 C 0 km/h
594 08-05-2010 22:48:02 12 C 6.39 g/m*3 12 C 0 km/h
595 08-05-2010 23:00:02 11.8 C 6.21 g/m*3 11.8 C 0 km/h
596 08-05-2010 23:12:01 11.6 C 6.34 g/m*3 11.6 C 0 km/h
597 08-05-2010 23:24:02 11 C 6.21 g/m*3 11 C 0 km/h
598 08-05-2010 23:36:01 10.6 C 6.25 g/m*3 10.6 C 0 km/h
599 08-05-2010 23:48:02 10.3 C 6.22 g/m*3 10.3 C 0 km/h
600 09-05-2010 00:00:02 10.2 C 6.38 g/m*3 10.2 C 0 km/h
Sensor: Nr:Datum:Temp:Abs-Feuchte:Windchill:Wind:
Aussen-T/F 601 09-05-2010 00:12:02 10 C 6.39 g/m*3 10 C 0 km/h
602 09-05-2010 00:24:03 9.8 C 6.49 g/m*3 9.8 C 0 km/h
603 09-05-2010 00:36:02 9.6 C 6.41 g/m*3 9.6 C 0 km/h
604 09-05-2010 00:48:02 9.4 C 6.42 g/m*3 9.4 C 0 km/h
605 09-05-2010 01:00:02 9.1 C 6.39 g/m*3 9.1 C 0 km/h
606 09-05-2010 01:12:02 9 C 6.52 g/m*3 9 C 0 km/h
607 09-05-2010 01:24:03 8.7 C 6.49 g/m*3 8.7 C 0 km/h
608 09-05-2010 01:36:02 8.6 C 6.44 g/m*3 8.6 C 0 km/h
609 09-05-2010 01:48:03 8.7 C 6.57 g/m*3 8.7 C 0 km/h
610 09-05-2010 02:00:03 8.8 C 6.7 g/m*3 8.8 C 0 km/h
611 09-05-2010 02:12:02 8.7 C 6.66 g/m*3 8.7 C 0 km/h
612 09-05-2010 02:24:02 8.7 C 6.66 g/m*3 8.7 C 0 km/h
613 09-05-2010 02:36:02 8.4 C 6.53 g/m*3 8.4 C 0 km/h
614 09-05-2010 02:49:04 8.5 C 6.57 g/m*3 8.5 C 0 km/h
615 09-05-2010 03:01:04 8.5 C 6.66 g/m*3 8.5 C 0 km/h
616 09-05-2010 03:13:03 8.3 C 6.57 g/m*3 8.3 C 0 km/h
617 09-05-2010 03:25:03 8.5 C 6.66 g/m*3 8.5 C 0 km/h
618 09-05-2010 03:37:01 8.5 C 6.66 g/m*3 8.5 C 0 km/h
619 09-05-2010 03:49:01 8.5 C 6.66 g/m*3 8.5 C 0 km/h
620 09-05-2010 04:01:01 8.6 C 6.7 g/m*3 8.6 C 0 km/h
621 09-05-2010 04:13:01 8.6 C 6.7 g/m*3 8.6 C 0 km/h
622 09-05-2010 04:25:02 8.5 C 6.66 g/m*3 8.5 C 0 km/h
623 09-05-2010 04:37:01 8.5 C 6.66 g/m*3 8.5 C 0 km/h
624 09-05-2010 04:49:03 8.3 C 6.57 g/m*3 8.3 C 0 km/h
625 09-05-2010 05:01:02 8 C 6.45 g/m*3 8 C 0 km/h
Sensor: Nr:Datum:Temp:Abs-Feuchte:Windchill:Wind:
Aussen-T/F 626 09-05-2010 05:13:02 7.8 C 6.53 g/m*3 7.8 C 0 km/h
627 09-05-2010 05:25:02 7.6 C 6.53 g/m*3 7.6 C 0 km/h
628 09-05-2010 05:37:02 7.4 C 6.52 g/m*3 7.4 C 0 km/h
629 09-05-2010 05:49:02 7.4 C 6.52 g/m*3 7.4 C 0 km/h
630 09-05-2010 06:01:02 7.6 C 6.69 g/m*3 7.6 C 0 km/h
631 09-05-2010 06:13:02 7.9 C 6.82 g/m*3 7.9 C 0 km/h
632 09-05-2010 06:25:02 8 C 6.7 g/m*3 8 C 0 km/h
633 09-05-2010 06:37:02 8.1 C 6.74 g/m*3 8.1 C 0 km/h
634 09-05-2010 06:49:02 8.3 C 6.83 g/m*3 8.3 C 0 km/h
635 09-05-2010 07:01:02 8.5 C 6.92 g/m*3 8.5 C 0 km/h
636 09-05-2010 07:13:02 8.6 C 6.87 g/m*3 8.6 C 0 km/h
637 09-05-2010 07:25:01 8.7 C 6.83 g/m*3 8.7 C 0 km/h
638 09-05-2010 07:37:02 9.1 C 6.92 g/m*3 9.1 C 0 km/h
639 09-05-2010 07:49:02 9.1 C 6.83 g/m*3 9.1 C 0 km/h
640 09-05-2010 08:01:02 9.6 C 6.96 g/m*3 9.6 C 0 km/h
641 09-05-2010 08:13:02 9.6 C 6.96 g/m*3 9.6 C 0 km/h
642 09-05-2010 08:25:02 9.6 C 6.87 g/m*3 9.6 C 0 km/h
643 09-05-2010 08:37:02 10 C 7.05 g/m*3 10 C 0 km/h
644 09-05-2010 08:49:02 10.4 C 7.04 g/m*3 10.4 C 0 km/h
645 09-05-2010 09:01:02 10.8 C 7.02 g/m*3 10.8 C 0 km/h
646 09-05-2010 09:13:02 10.9 C 7.16 g/m*3 10.9 C 0 km/h
647 09-05-2010 09:25:02 11.1 C 6.95 g/m*3 11.1 C 0 km/h
648 09-05-2010 09:37:03 11.7 C 7.11 g/m*3 11.7 C 0 km/h
649 09-05-2010 09:49:02 12 C 6.93 g/m*3 12 C 0 km/h
650 09-05-2010 10:01:01 12.4 C 6.99 g/m*3 12.4 C 0 km/h
Sensor: Nr:Datum:Temp:Abs-Feuchte:Windchill:Wind:
Aussen-T/F 651 09-05-2010 10:13:01 12.7 C 7.12 g/m*3 12.7 C 0 km/h
652 09-05-2010 10:25:01 12.2 C 7.23 g/m*3 12.2 C 0 km/h
653 09-05-2010 10:37:02 12.2 C 7.55 g/m*3 12.2 C 0 km/h
654 09-05-2010 10:49:02 12 C 7.35 g/m*3 12 C 0 km/h
655 09-05-2010 11:01:01 12.2 C 7.55 g/m*3 12.2 C 0 km/h
656 09-05-2010 11:13:01 12.4 C 7.54 g/m*3 12.4 C 0 km/h
657 09-05-2010 11:25:02 12.3 C 7.38 g/m*3 12.3 C 0 km/h
658 09-05-2010 11:37:01 12.3 C 7.28 g/m*3 12.3 C 0 km/h
659 09-05-2010 11:49:02 12.2 C 7.23 g/m*3 12.2 C 0 km/h
660 09-05-2010 12:01:02 12.3 C 7.28 g/m*3 12.3 C 0 km/h
661 09-05-2010 12:13:02 13 C 7.37 g/m*3 13 C 0 km/h
662 09-05-2010 12:25:02 13.4 C 7.21 g/m*3 13.4 C 0 km/h
663 09-05-2010 12:37:02 14 C 7.24 g/m*3 14 C 0 km/h
664 09-05-2010 12:49:02 14.4 C 7.17 g/m*3 14.4 C 0 km/h
665 09-05-2010 13:01:01 15 C 6.92 g/m*3 15 C 0 km/h
666 09-05-2010 13:13:01 16.2 C 7.03 g/m*3 16.2 C 0 km/h
667 09-05-2010 13:25:01 17.2 C 6.59 g/m*3 17.2 C 0 km/h
668 09-05-2010 13:37:02 18.5 C 6.33 g/m*3 18.5 C 0 km/h
669 09-05-2010 13:49:02 18.2 C 6.22 g/m*3 18.2 C 0 km/h
670 09-05-2010 14:01:02 17.9 C 6.11 g/m*3 17.9 C 0 km/h
671 09-05-2010 14:13:02 17.5 C 6.11 g/m*3 17.5 C 0 km/h
672 09-05-2010 14:25:02 16.7 C 6.11 g/m*3 16.7 C 0 km/h
673 09-05-2010 14:37:01 16.7 C 6.11 g/m*3 16.7 C 0 km/h
674 09-05-2010 14:49:02 17 C 6.22 g/m*3 17 C 0 km/h
675 09-05-2010 15:01:01 17 C 6.22 g/m*3 17 C 0 km/h
Sensor: Nr:Datum:Temp:Abs-Feuchte:Windchill:Wind:
Aussen-T/F 676 09-05-2010 15:13:01 17.3 C 6.33 g/m*3 17.3 C 0 km/h
677 09-05-2010 15:25:02 17.6 C 6.3 g/m*3 17.6 C 0 km/h
678 09-05-2010 15:37:01 17.8 C 6.37 g/m*3 17.8 C 0 km/h
679 09-05-2010 15:49:03 17.9 C 6.26 g/m*3 17.9 C 0 km/h
680 09-05-2010 16:01:02 18 C 6.3 g/m*3 18 C 0 km/h
681 09-05-2010 16:13:02 18.7 C 6.4 g/m*3 18.7 C 0 km/h
682 09-05-2010 16:25:02 19.1 C 6.23 g/m*3 19.1 C 0 km/h
683 09-05-2010 16:37:02 18.7 C 6.08 g/m*3 18.7 C 0 km/h
684 09-05-2010 16:49:02 18 C 5.68 g/m*3 18 C 0 km/h
685 09-05-2010 17:01:02 17.8 C 5.77 g/m*3 17.8 C 0 km/h
686 09-05-2010 17:13:02 19.6 C 5.74 g/m*3 19.6 C 0 km/h
687 09-05-2010 17:25:02 19.5 C 5.03 g/m*3 19.5 C 0 km/h
688 09-05-2010 17:37:02 19.1 C 5.41 g/m*3 19.1 C 0 km/h
689 09-05-2010 17:49:02 19.4 C 5.17 g/m*3 19.4 C 0 km/h
690 09-05-2010 18:01:02 19.5 C 5.71 g/m*3 19.5 C 0 km/h
691 09-05-2010 18:13:02 18.9 C 5.67 g/m*3 18.9 C 0 km/h
692 09-05-2010 18:25:03 18.7 C 5.76 g/m*3 18.7 C 0 km/h
693 09-05-2010 18:37:02 18.3 C 5.79 g/m*3 18.3 C 0 km/h
694 09-05-2010 18:49:03 18.1 C 6.03 g/m*3 18.1 C 0 km/h
695 09-05-2010 19:01:02 17.6 C 6.6 g/m*3 17.6 C 0 km/h
696 09-05-2010 19:13:03 17 C 6.8 g/m*3 17 C 0 km/h
697 09-05-2010 19:25:02 17 C 6.95 g/m*3 17 C 0 km/h
698 09-05-2010 19:37:02 16.6 C 6.92 g/m*3 16.6 C 0 km/h
699 09-05-2010 19:49:01 16.2 C 6.9 g/m*3 16.2 C 0 km/h
700 09-05-2010 20:01:02 15.8 C 7 g/m*3 15.8 C 0 km/h
Sensor: Nr:Datum:Temp:Abs-Feuchte:Windchill:Wind:
Aussen-T/F 701 09-05-2010 20:13:02 15.2 C 6.88 g/m*3 15.2 C 0 km/h
702 09-05-2010 20:25:01 14.8 C 6.84 g/m*3 14.8 C 0 km/h
703 09-05-2010 20:37:01 14.3 C 6.88 g/m*3 14.3 C 0 km/h
704 09-05-2010 20:49:01 14 C 6.75 g/m*3 14 C 0 km/h
705 09-05-2010 21:01:02 13.4 C 6.97 g/m*3 13.4 C 0 km/h
706 09-05-2010 21:13:02 12.8 C 7.06 g/m*3 12.8 C 0 km/h
707 09-05-2010 21:25:02 12.5 C 7.15 g/m*3 12.5 C 0 km/h
708 09-05-2010 21:37:02 12.1 C 7.08 g/m*3 12.1 C 0 km/h
709 09-05-2010 21:49:02 11.7 C 7.11 g/m*3 11.7 C 0 km/h
710 09-05-2010 22:01:03 11.5 C 7.13 g/m*3 11.5 C 0 km/h
711 09-05-2010 22:13:03 11.3 C 7.14 g/m*3 11.3 C 0 km/h
712 09-05-2010 22:25:02 11.1 C 7.05 g/m*3 11.1 C 0 km/h
713 09-05-2010 22:38:04 10.9 C 6.96 g/m*3 10.9 C 0 km/h
714 09-05-2010 22:50:04 10.8 C 7.02 g/m*3 10.8 C 0 km/h
715 09-05-2010 23:02:04 10.8 C 7.12 g/m*3 10.8 C 0 km/h
716 09-05-2010 23:14:04 10.9 C 7.06 g/m*3 10.9 C 0 km/h
717 09-05-2010 23:26:05 10.7 C 7.07 g/m*3 10.7 C 0 km/h
718 09-05-2010 23:38:05 10.8 C 7.22 g/m*3 10.8 C 0 km/h
719 09-05-2010 23:50:05 10.5 C 7.08 g/m*3 10.5 C 0 km/h
720 10-05-2010 00:02:05 10.4 C 7.13 g/m*3 10.4 C 0 km/h
721 10-05-2010 00:14:05 10.5 C 7.18 g/m*3 10.5 C 0 km/h
722 10-05-2010 00:26:05 10.3 C 7.09 g/m*3 10.3 C 0 km/h
723 10-05-2010 00:38:05 10.1 C 7.09 g/m*3 10.1 C 0 km/h
724 10-05-2010 00:50:05 9.8 C 7.24 g/m*3 9.8 C 0 km/h
725 10-05-2010 01:02:05 9.8 C 7.24 g/m*3 9.8 C 0 km/h
Sensor: Nr:Datum:Temp:Abs-Feuchte:Windchill:Wind:
Aussen-T/F 726 10-05-2010 01:14:05 9.8 C 7.33 g/m*3 9.8 C 0 km/h
727 10-05-2010 01:26:05 9.9 C 7.38 g/m*3 9.9 C 0 km/h
728 10-05-2010 01:38:05 10 C 7.24 g/m*3 10 C 0 km/h
729 10-05-2010 01:50:05 9.8 C 7.24 g/m*3 9.8 C 0 km/h
730 10-05-2010 02:02:05 9.7 C 7.19 g/m*3 9.7 C 0 km/h
731 10-05-2010 02:14:05 9.5 C 7.19 g/m*3 9.5 C 0 km/h
732 10-05-2010 02:26:05 9.4 C 7.24 g/m*3 9.4 C 0 km/h
733 10-05-2010 02:38:05 9.4 C 7.24 g/m*3 9.4 C 0 km/h
734 10-05-2010 02:50:05 9.4 C 7.33 g/m*3 9.4 C 0 km/h
735 10-05-2010 03:02:05 9.2 C 7.23 g/m*3 9.2 C 0 km/h
736 10-05-2010 03:14:05 9 C 7.14 g/m*3 9 C 0 km/h
737 10-05-2010 03:26:05 8.8 C 7.14 g/m*3 8.8 C 0 km/h
738 10-05-2010 03:38:05 8.7 C 7.18 g/m*3 8.7 C 0 km/h
739 10-05-2010 03:50:06 8.7 C 7.26 g/m*3 8.7 C 0 km/h
740 10-05-2010 04:02:06 8.6 C 7.22 g/m*3 8.6 C 0 km/h
741 10-05-2010 04:14:06 8.6 C 7.22 g/m*3 8.6 C 0 km/h
742 10-05-2010 04:26:06 8.6 C 7.3 g/m*3 8.6 C 0 km/h
743 10-05-2010 04:38:06 8.6 C 7.3 g/m*3 8.6 C 0 km/h
744 10-05-2010 04:50:06 8.7 C 7.26 g/m*3 8.7 C 0 km/h
745 10-05-2010 05:02:06 8.6 C 7.22 g/m*3 8.6 C 0 km/h
746 10-05-2010 05:14:06 8.6 C 7.22 g/m*3 8.6 C 0 km/h
747 10-05-2010 05:26:06 8.6 C 7.3 g/m*3 8.6 C 0 km/h
748 10-05-2010 05:38:06 8.7 C 7.35 g/m*3 8.7 C 0 km/h
749 10-05-2010 05:50:06 8.8 C 7.31 g/m*3 8.8 C 0 km/h
750 10-05-2010 06:02:06 8.7 C 7.26 g/m*3 8.7 C 0 km/h
Sensor: Nr:Datum:Temp:Abs-Feuchte:Windchill:Wind:
Aussen-T/F 751 10-05-2010 06:14:06 8.7 C 7.26 g/m*3 8.7 C 0 km/h
752 10-05-2010 06:26:06 8.8 C 7.31 g/m*3 8.8 C 0 km/h
753 10-05-2010 06:38:04 8.9 C 7.36 g/m*3 8.9 C 0 km/h
754 10-05-2010 06:50:02 9 C 7.32 g/m*3 9 C 0 km/h
755 10-05-2010 07:02:02 9.1 C 7.36 g/m*3 9.1 C 0 km/h
756 10-05-2010 07:14:02 9.4 C 7.51 g/m*3 9.4 C 0 km/h
757 10-05-2010 07:26:01 9.6 C 7.6 g/m*3 9.6 C 0 km/h
758 10-05-2010 07:38:02 9.8 C 7.7 g/m*3 9.8 C 0 km/h
759 10-05-2010 07:50:02 10.2 C 7.71 g/m*3 10.2 C 0 km/h
760 10-05-2010 08:02:02 10.5 C 7.76 g/m*3 10.5 C 0 km/h
761 10-05-2010 08:14:02 10.6 C 7.71 g/m*3 10.6 C 0 km/h
762 10-05-2010 08:26:02 10.7 C 7.66 g/m*3 10.7 C 0 km/h
763 10-05-2010 08:38:02 10.7 C 7.46 g/m*3 10.7 C 0 km/h
764 10-05-2010 08:50:02 10.7 C 7.37 g/m*3 10.7 C 0 km/h
765 10-05-2010 09:02:02 10.8 C 7.41 g/m*3 10.8 C 0 km/h
766 10-05-2010 09:14:03 10.8 C 7.22 g/m*3 10.8 C 0 km/h
767 10-05-2010 09:26:02 10.7 C 7.27 g/m*3 10.7 C 0 km/h
768 10-05-2010 09:38:02 11 C 7.21 g/m*3 11 C 0 km/h
769 10-05-2010 09:50:02 11.1 C 7.25 g/m*3 11.1 C 0 km/h
770 10-05-2010 10:02:02 11.1 C 7.15 g/m*3 11.1 C 0 km/h
771 10-05-2010 10:14:02 11.4 C 7.08 g/m*3 11.4 C 0 km/h
772 10-05-2010 10:26:03 11.2 C 7.1 g/m*3 11.2 C 0 km/h
773 10-05-2010 10:38:02 11.6 C 7.17 g/m*3 11.6 C 0 km/h
774 10-05-2010 10:50:02 11.4 C 6.98 g/m*3 11.4 C 0 km/h
775 10-05-2010 11:02:02 11.5 C 7.13 g/m*3 11.5 C 0 km/h
Sensor: Nr:Datum:Temp:Abs-Feuchte:Windchill:Wind:
Aussen-T/F 776 10-05-2010 11:14:02 11.5 C 7.02 g/m*3 11.5 C 0 km/h
777 10-05-2010 11:26:02 11.5 C 7.02 g/m*3 11.5 C 0 km/h
778 10-05-2010 11:38:02 11.3 C 7.04 g/m*3 11.3 C 0 km/h
779 10-05-2010 11:50:02 11.7 C 7.22 g/m*3 11.7 C 0 km/h
780 10-05-2010 12:02:03 11.7 C 7.11 g/m*3 11.7 C 0 km/h
781 10-05-2010 12:14:03 11.6 C 6.96 g/m*3 11.6 C 0 km/h
782 10-05-2010 12:26:02 12.7 C 7.01 g/m*3 12.7 C 0 km/h
783 10-05-2010 12:38:03 12.9 C 6.76 g/m*3 12.9 C 0 km/h
784 10-05-2010 12:50:02 14.1 C 6.8 g/m*3 14.1 C 0 km/h
785 10-05-2010 13:02:02 13.5 C 6.43 g/m*3 13.5 C 0 km/h
786 10-05-2010 13:14:02 13.5 C 6.43 g/m*3 13.5 C 0 km/h
787 10-05-2010 13:26:01 14.7 C 6.17 g/m*3 14.7 C 0 km/h
788 10-05-2010 13:38:02 15.3 C 6.4 g/m*3 15.3 C 0 km/h
789 10-05-2010 13:50:02 15.4 C 6.18 g/m*3 15.4 C 0 km/h
790 10-05-2010 14:02:02 15.3 C 6.01 g/m*3 15.3 C 0 km/h
791 10-05-2010 14:14:02 15.5 C 6.08 g/m*3 15.5 C 0 km/h
792 10-05-2010 14:26:02 14.8 C 5.95 g/m*3 14.8 C 0 km/h
793 10-05-2010 14:38:02 14.7 C 5.92 g/m*3 14.7 C 0 km/h
794 10-05-2010 14:50:02 14.7 C 5.92 g/m*3 14.7 C 0 km/h
795 10-05-2010 15:02:02 15 C 5.77 g/m*3 15 C 0 km/h
796 10-05-2010 15:14:02 15.4 C 5.78 g/m*3 15.4 C 0 km/h
797 10-05-2010 15:26:02 15.1 C 5.93 g/m*3 15.1 C 0 km/h
798 10-05-2010 15:38:02 15.3 C 5.62 g/m*3 15.3 C 0 km/h
799 10-05-2010 15:50:02 14.7 C 5.79 g/m*3 14.7 C 0 km/h
800 10-05-2010 16:02:02 15.2 C 5.84 g/m*3 15.2 C 0 km/h
Sensor: Nr:Datum:Temp:Abs-Feuchte:Windchill:Wind:
Aussen-T/F 801 10-05-2010 16:14:02 15.8 C 5.79 g/m*3 15.8 C 0 km/h
802 10-05-2010 16:26:02 15.7 C 5.49 g/m*3 15.7 C 0 km/h
803 10-05-2010 16:38:02 16.2 C 5.52 g/m*3 16.2 C 0 km/h
804 10-05-2010 16:50:02 16.3 C 5.13 g/m*3 16.3 C 0 km/h
805 10-05-2010 17:02:02 15.5 C 5.42 g/m*3 15.5 C 0 km/h
806 10-05-2010 17:14:02 15.6 C 5.45 g/m*3 15.6 C 0 km/h
807 10-05-2010 17:26:02 16 C 5.31 g/m*3 16 C 0 km/h
808 10-05-2010 17:38:02 16 C 5.31 g/m*3 16 C 0 km/h
809 10-05-2010 17:50:01 15.8 C 5.38 g/m*3 15.8 C 0 km/h
810 10-05-2010 18:02:02 16.4 C 5.02 g/m*3 16.4 C 0 km/h
811 10-05-2010 18:14:02 17.3 C 5.01 g/m*3 17.3 C 0 km/h
812 10-05-2010 18:26:02 17.6 C 5.1 g/m*3 17.6 C 0 km/h
813 10-05-2010 18:38:01 17.1 C 4.66 g/m*3 17.1 C 0 km/h
814 10-05-2010 18:50:02 15.8 C 4.71 g/m*3 15.8 C 0 km/h
815 10-05-2010 19:02:01 15.4 C 4.73 g/m*3 15.4 C 0 km/h
816 10-05-2010 19:14:01 15.6 C 4.92 g/m*3 15.6 C 0 km/h
817 10-05-2010 19:26:02 14.9 C 4.97 g/m*3 14.9 C 0 km/h
818 10-05-2010 19:38:01 14.7 C 5.04 g/m*3 14.7 C 0 km/h
819 10-05-2010 19:50:02 14.5 C 5.1 g/m*3 14.5 C 0 km/h
820 10-05-2010 20:02:01 14.5 C 4.97 g/m*3 14.5 C 0 km/h
821 10-05-2010 20:14:01 14.5 C 4.97 g/m*3 14.5 C 0 km/h
822 10-05-2010 20:26:02 14.3 C 5.04 g/m*3 14.3 C 0 km/h
823 10-05-2010 20:38:01 13.7 C 5.09 g/m*3 13.7 C 0 km/h
824 10-05-2010 20:50:02 13.1 C 5.14 g/m*3 13.1 C 0 km/h
825 10-05-2010 21:02:02 12.8 C 5.38 g/m*3 12.8 C 0 km/h
Sensor: Nr:Datum:Temp:Abs-Feuchte:Windchill:Wind:
Aussen-T/F 826 10-05-2010 21:14:02 12.3 C 5.43 g/m*3 12.3 C 0 km/h
827 10-05-2010 21:26:02 11.9 C 5.51 g/m*3 11.9 C 0 km/h
828 10-05-2010 21:38:02 11.6 C 5.4 g/m*3 11.6 C 0 km/h
829 10-05-2010 21:50:02 11.5 C 5.58 g/m*3 11.5 C 0 km/h
830 10-05-2010 22:02:02 11.5 C 5.68 g/m*3 11.5 C 0 km/h
831 10-05-2010 22:14:02 11.5 C 5.58 g/m*3 11.5 C 0 km/h
832 10-05-2010 22:27:04 11.2 C 5.57 g/m*3 11.2 C 0 km/h
833 10-05-2010 22:39:04 11.1 C 5.54 g/m*3 11.1 C 0 km/h
834 10-05-2010 22:51:04 11.8 C 5.79 g/m*3 11.8 C 0 km/h
835 10-05-2010 23:03:04 11.6 C 5.92 g/m*3 11.6 C 0 km/h
836 10-05-2010 23:15:05 11.2 C 5.68 g/m*3 11.2 C 0 km/h
837 10-05-2010 23:27:05 11.3 C 5.81 g/m*3 11.3 C 0 km/h
838 10-05-2010 23:39:05 11.4 C 5.85 g/m*3 11.4 C 0 km/h
839 10-05-2010 23:51:05 11.2 C 5.78 g/m*3 11.2 C 0 km/h

Legende:
   Min
   Max


Maximal/Minimal-Werte vom 04.05.2010 - 10.05.2010

Sensor Min Max Avg
Temp
(Aussen-T/F)
2.5 °C
05-05-2010  06:45:03
19.9 °C
08-05-2010  18:12:02
9.81 °C
Abs-Feuchte
(Aussen-T/F)
2.23 g/m*3
05-05-2010  12:09:02
7.76 g/m*3
10-05-2010  08:02:02
5.86 g/m*3
Windchill
(Aussen-T/F)
2.5 C
05-05-2010  06:45:03
19.9 C
08-05-2010  18:12:02
9.8 C

Die Daten stammen von einer Davis Vantage Pro 2 Wetter-Station und werden unter Linux mit der Software wview2wettercgi und aufbereitet. Alle Angaben erfolgen ohne Gewähr für ihre Vollständigkeit oder Richtigkeit.
Kontakt: Rainer Krienke krienke@uni-koblenz.de . Meine Webseiten an der Uni Koblenz oder privat.
Version: $Revision: 0.78 $